Location: Bothwell
(42.3833°S, 147.0000°E)
Time: 21:20:43
(UTC+11:00)

AO-85 - Pass Details

Date: 03 October 2022
Orbit: 513 x 757 km, 64.8° (Epoch: 24 November)

Event Time Altitude Azimuth Distance (km) Brightness Sun altitude
Rises 05:48:06 0° 215° (SW) 3,116 ? -10.8°
Reaches altitude 10° 05:50:26 10° 217° (SW) 2,223 ? -10.3°
Maximum altitude 05:55:33 76° 301° (WNW) 774 ? -9.4°
Drops below altitude 10° 06:00:49 10° 26° (NNE) 2,284 ? -8.5°
Sets 06:03:14 0° 27° (NNE) 3,208 ? -8.1°
